Home   Weather   Camagüey   Past weeks

Flag for Cuba Past Weather in Camagüey, Cuba — Yesterday and Last 2 Weeks

Now
73 °F

Passing clouds.


Feels Like: 76 °F
Forecast: 61 / 83 °F
Wind: 9 mph from Northeast

Location: Camaguey Aeropuerto

Current Time: Feb 20, 2017 at 8:06:29 pm

Latest Report: Feb 20, 2017 at 6:50 pm


Visibility: 6 mi

Pressure: 30.07 "Hg

Humidity: 69%

Dew Point: 63 °F

Location of CamagüeyLocation

Past Weather in Camagüey — Graph

°F

Camagüey Temperature Yesterday

Maximum temperature yesterday: 90 °F (at 1:50 pm)
Minimum temperature yesterday: 68 °F (at 4:50 am)
Average temperature yesterday: 76 °F

High & Low Weather Summary for the Past Weeks

 TemperatureHumidityPressure
High91 °F (Feb 8, 2:50 pm)100% (Feb 7, 7:25 am)30.24 "Hg (Feb 7, 7:25 am)
Low61 °F (Feb 14, 3:50 am)25% (Feb 14, 3:50 pm)29.95 "Hg (Feb 7, 2:50 pm)
Average75 °F71%30.07 "Hg
* Reported Feb 5 6:50 pm — Feb 20 6:50 pm, Camagüey, Weather by CustomWeather, © 2017

Note: Actual official high and low records may vary slightly from our data, if they occured in-between our weather recording intervals... More about our weather records

Advertising

Camagüey Weather History for the Previous 24 Hours

Scroll right to see more
 ConditionsComfort  
Time TempWeatherWind HumidityBarometerVisibility
6:50 pm
Mon, Feb 20
73 °FPassing clouds.9 mph69%30.07 "Hg6 mi
5:50 pm77 °FPassing clouds.14 mph61%30.04 "Hg6 mi
4:50 pm81 °FPassing clouds.15 mph54%30.01 "Hg6 mi
3:50 pm84 °FPassing clouds.16 mph45%30.01 "Hg6 mi
2:50 pm84 °FPassing clouds.15 mph45%30.01 "Hg6 mi
1:50 pm86 °FScattered clouds.13 mph43%30.04 "Hg6 mi
12:50 pm86 °FScattered clouds.12 mph43%30.07 "Hg6 mi
11:50 am84 °FScattered clouds.12 mph45%30.09 "Hg6 mi
10:50 am81 °FScattered clouds.10 mph54%30.09 "Hg6 mi
9:50 am79 °FPassing clouds.8 mph65%30.09 "Hg6 mi
8:50 am75 °FPassing clouds.8 mph83%30.09 "Hg6 mi
7:50 am72 °FFog.3 mph94%30.09 "Hg4 mi
6:50 am68 °FFog.3 mph94%30.07 "Hg3 mi
5:52 am68 °FFog.5 mph94%30.07 "Hg4 mi
4:52 am68 °FClear.7 mph94%30.04 "Hg6 mi
3:52 am70 °FClear.6 mph94%30.04 "Hg6 mi
2:52 am70 °FClear.5 mph94%30.04 "Hg6 mi
1:50 am72 °FClear.2 mph88%30.04 "Hg5 mi
12:56 am72 °FFog.1 mph88%30.07 "Hg4 mi
11:51 pm
Sun, Feb 19
73 °FPassing clouds.2 mph89%30.07 "Hg6 mi
10:50 pm73 °FPassing clouds.No wind89%30.09 "Hg6 mi
9:52 pm73 °FPassing clouds.3 mph89%30.07 "Hg6 mi
8:50 pm75 °FPassing clouds.5 mph78%30.07 "Hg6 mi
Weather by CustomWeather, © 2017

See weather overviewHow to use our weather pages